{"data":{"norad_id":39166,"epoch":"2026-05-24T17:59:53.308320Z","epoch_age_seconds":99711,"freshness":"FRESH","line1":"1 39166U 13023A   26144.74992255 -.00000075  00000+0  00000+0 0  9995","line2":"2 39166  54.5230 269.9280 0141730  50.9138 310.3242  2.00563616 95417","mean_motion":2.00563616,"eccentricity":0.014173,"inclination_deg":54.523,"raan_deg":269.928,"arg_perigee_deg":50.9138,"mean_anomaly_deg":310.3242,"bstar":0,"rev_number":9541,"period_min":717.9766842656,"perigee_km":19805.769963516,"apogee_km":20558.649552721,"semimajor_km":26560.346758119,"source":"CELESTRAK","updated_at":"2026-05-25T13:38:23.731592Z"}}